Location: Palmerston North
(40.3500°S, 175.6170°E)
Time: 03:55:57
(UTC+13:00)

NOSS 2-1 (E) - Pass Details

Date: 24 January 2019
Orbit: 478 x 1726 km, 63.3° (Epoch: 12 February)

Event Time Altitude Azimuth Distance (km) Brightness Sun altitude
Rises 22:48:20 0° 215° (SW) 4,430 9.6 -19.6°
Reaches altitude 10° 22:51:37 10° 214° (SW) 3,262 8.4 -20.0°
Maximum altitude 22:59:21 87° 123° (ESE) 991 4.5 -20.9°
Enters shadow 23:01:33 42° 37° (NE) 1,270 4.6 -21.2°
